Weather History for Rogers, AR

Change the Weather History Date:

Friday, December 7, 2012

  Actual Average Record
Temperature  
Mean Temperature 52 °F -  
Max Temperature 57 °F 48 °F 66 °F (2001)
Min Temperature 48 °F 32 °F 5 °F (2013)
Degree Days  
Heating Degree Days 12    
Growing Degree Days 2 (Base 50)    
Moisture  
Dew Point 50 °F    
Average Humidity 90    
Maximum Humidity 96    
Minimum Humidity 77    
Precipitation  
Precipitation 0.00 in - - ()
Sea Level Pressure  
Sea Level Pressure 29.87 in    
Wind  
Wind Speed 3 mph (SE)    
Max Wind Speed 7 mph    
Max Gust Speed -    
Visibility 7 miles    
Events Rain    
Averages and records for this station are not official NWS values.
T = Trace of Precipitation, MM = Missing Value Source: NWS Daily Summary

Daily Weather History Graph

Daily Weather History Graph

Search for Another Location

Airport:

Trip Planner

Search our weather history database for the weather conditions in past years. The results will help you decide how hot, cold, wet, or windy it might be!

Date:

Astronomy

Dec. 07, 2012 Rise Set
Actual Time 7:15 AM CST 5:01 PM CST
Civil Twilight 6:46 AM CST 5:29 PM CST
Nautical Twilight 6:14 AM CST 6:01 PM CST
Astronomical Twilight 5:43 AM CST 6:33 PM CST
Moon 12:44 AM CST (12/7) 12:50 PM CST (12/7)
Length of Visible Light 10h 43m
Length of Day
9h 46m
Last Quarter, 38% of the Moon is Illuminated
Dec 7
Last Quarter
Dec 13
New
Dec 19
First Quarter
Dec 28
Full
Jan 4
Last Quarter

Hourly Weather History & Observations

Time (CST) Temp. Dew Point Humidity Pressure Visibility Wind Dir Wind Speed Gust Speed Precip Events Conditions
12:01 AM 50.0 °F 46.4 °F 87% 29.90 in 10.0 mi South 6.9 mph - N/A   Scattered Clouds
12:57 AM 48.9 °F 46.0 °F 90% 29.88 in 10.0 mi SSE 3.5 mph - N/A   Partly Cloudy
1:04 AM 48.2 °F 46.4 °F 93% 29.89 in 10.0 mi South 3.5 mph - N/A   Mostly Cloudy
1:57 AM 50.0 °F 46.9 °F 89% 29.88 in 10.0 mi SSE 3.5 mph - N/A   Overcast
2:36 AM 50.0 °F 46.4 °F 87% 29.90 in 10.0 mi Calm Calm - N/A   Overcast
2:53 AM 50.0 °F 46.4 °F 87% 29.90 in 10.0 mi Calm Calm - N/A   Overcast
2:57 AM 50.0 °F 46.9 °F 89% 29.88 in 10.0 mi Calm Calm - N/A   Overcast
3:08 AM 50.0 °F 46.4 °F 87% 29.90 in 10.0 mi SSE 3.5 mph - N/A   Overcast
3:11 AM 50.0 °F 46.4 °F 87% 29.89 in 10.0 mi SSE 3.5 mph - N/A   Overcast
3:16 AM 50.0 °F 46.4 °F 87% 29.89 in 10.0 mi SSE 3.5 mph - N/A   Overcast
3:57 AM 50.0 °F 46.9 °F 89% 29.87 in 10.0 mi Calm Calm - N/A   Overcast
4:57 AM 50.0 °F 46.9 °F 89% 29.86 in 10.0 mi ESE 3.5 mph - N/A   Overcast
5:57 AM 50.0 °F 46.9 °F 89% 29.87 in 10.0 mi East 3.5 mph - N/A   Overcast
6:57 AM 50.0 °F 46.9 °F 89% 29.88 in 10.0 mi East 5.8 mph - N/A   Overcast
7:20 AM 50.0 °F 46.4 °F 87% 29.89 in 9.0 mi East 3.5 mph - N/A   Overcast
7:57 AM 51.8 °F 48.2 °F 88% 29.89 in 9.0 mi Calm Calm - N/A   Overcast
8:03 AM 51.8 °F 48.2 °F 88% 29.89 in 9.0 mi East 3.5 mph - N/A   Overcast
8:19 AM 51.8 °F 48.2 °F 88% 29.89 in 9.0 mi East 3.5 mph - N/A   Overcast
8:57 AM 51.1 °F 48.0 °F 89% 29.90 in 9.0 mi SE 3.5 mph - N/A   Overcast
9:57 AM 53.1 °F 48.9 °F 86% 29.91 in 9.0 mi ESE 4.6 mph - N/A   Overcast
10:57 AM 55.0 °F 48.9 °F 80% 29.88 in 8.0 mi SSE 3.5 mph - N/A   Overcast
11:57 AM 55.9 °F 50.0 °F 80% 29.85 in 9.0 mi ESE 5.8 mph - N/A   Overcast
12:42 PM 57.2 °F 50.0 °F 77% 29.84 in 8.0 mi SE 5.8 mph - N/A   Overcast
1:57 PM 57.0 °F 51.1 °F 81% 29.81 in 5.0 mi South 4.6 mph - 0.00 in Rain Light Rain
2:47 PM 55.4 °F 53.6 °F 94% 29.82 in 4.0 mi SSE 3.5 mph - 0.00 in Rain Light Rain
2:57 PM 55.0 °F 53.1 °F 93% 29.82 in 4.0 mi SSE 3.5 mph - 0.00 in   Overcast
3:57 PM 55.0 °F 53.1 °F 93% 29.82 in 5.0 mi Calm Calm - N/A   Overcast
4:40 PM 55.4 °F 53.6 °F 94% 29.83 in 4.0 mi East 3.5 mph - N/A   Overcast
4:48 PM 55.4 °F 53.6 °F 94% 29.84 in 4.0 mi East 3.5 mph - N/A   Overcast
4:52 PM 55.4 °F 53.6 °F 94% 29.84 in 4.0 mi Calm Calm - N/A   Overcast
4:57 PM 55.0 °F 53.1 °F 93% 29.83 in 4.0 mi East 3.5 mph - N/A   Overcast
5:46 PM 55.4 °F 53.6 °F 94% 29.84 in 6.0 mi WSW 5.8 mph - N/A   Overcast
5:53 PM 55.4 °F 53.6 °F 94% 29.84 in 6.0 mi Calm Calm - N/A   Overcast
5:57 PM 55.0 °F 53.1 °F 93% 29.84 in 6.0 mi WSW 4.6 mph - N/A   Overcast
6:14 PM 55.4 °F 53.6 °F 94% 29.84 in 6.0 mi SE 4.6 mph - N/A   Overcast
7:57 PM 54.0 °F 52.0 °F 93% 29.85 in 6.0 mi Calm Calm - N/A   Overcast
9:57 PM 54.0 °F 52.0 °F 93% 29.87 in 5.0 mi Calm Calm - N/A   Overcast
10:06 PM 53.6 °F 51.8 °F 94% 29.88 in 5.0 mi Calm Calm - N/A   Overcast
10:09 PM 53.6 °F 51.8 °F 94% 29.88 in 5.0 mi SSE 3.5 mph - N/A   Overcast
10:29 PM 53.6 °F 51.8 °F 94% 29.88 in 5.0 mi Calm Calm - N/A   Overcast
10:57 PM 53.1 °F 52.0 °F 96% 29.88 in 5.0 mi Calm Calm - N/A   Overcast
11:45 PM 53.6 °F 51.8 °F 94% 29.89 in 4.0 mi Calm Calm - N/A   Overcast
11:54 PM 53.6 °F 51.8 °F 94% 29.89 in 4.0 mi Calm Calm - 0.00 in Rain Light Rain
11:57 PM 53.1 °F 52.0 °F 96% 29.88 in 4.0 mi Calm Calm - 0.00 in Rain Light Rain